Simultaneous Nadir Overpasses (SNOs) Predictions

Prediction of SNOs between METOP-B and NPP Satellite Orbit:

Table of predicted SNOs for the next 14.0 days since TLE Epoch: 10/22/2014
Index Date (METOP-B) Time (METOP-B) Lat,Lon (METOP-B) SZA (METOP-B ) Date (NPP) Time (NPP) Lat,Lon (NPP) SZA (NPP ) Distance(km) Time Diff (sec)
1 11/04/2014 21:18:29 73.82,-145.16 89.28 11/04/2014 21:17:21 73.82,-147.64 89.32 76.70 68
2 11/04/2014 22:09:13 -73.70, 21.90 90.83 11/04/2014 22:08:03 -73.70, 19.95 90.79 60.79 70
3 11/04/2014 22:59:57 73.50,-171.24 88.99 11/04/2014 22:58:45 73.53,-172.34 89.04 35.13 72
4 11/04/2014 23:50:39 -73.44, -4.05 91.06 11/04/2014 23:49:26 -73.42, -4.77 91.07 22.92 73
5 11/05/2014 00:41:23 73.24, 162.83 88.76 11/05/2014 00:40:08 73.25, 162.93 88.77 3.33 75
6 11/05/2014 01:32:04 -73.28, -29.76 91.20 11/05/2014 01:30:53 -73.28, -29.84 91.19 2.65 71
7 11/05/2014 02:22:44 73.28, 137.57 88.81 11/05/2014 02:21:38 73.26, 137.52 88.80 2.21 66
8 11/05/2014 03:13:26 -73.26, -55.13 91.19 11/05/2014 03:12:22 -73.25, -55.13 91.21 1.89 64
9 11/05/2014 04:04:06 73.26, 112.20 88.82 11/05/2014 04:03:08 73.27, 112.12 88.84 2.88 58
10 11/05/2014 04:54:48 -73.25, -80.50 91.18 11/05/2014 04:53:52 -73.26, -80.54 91.17 1.63 56
11 11/05/2014 05:45:28 73.25, 86.83 88.83 11/05/2014 05:44:37 73.24, 86.83 88.82 1.18 51
12 11/05/2014 06:36:10 -73.24,-105.87 91.18 11/05/2014 06:35:21 -73.22,-105.83 91.19 1.92 49
13 11/05/2014 07:26:50 73.23, 61.46 88.84 11/05/2014 07:26:07 73.25, 61.42 88.86 2.19 43
14 11/05/2014 08:17:32 -73.22,-131.24 91.17 11/05/2014 08:16:51 -73.24,-131.23 91.15 1.56 41
15 11/05/2014 09:08:12 73.22, 36.09 88.85 11/05/2014 09:07:36 73.21, 36.13 88.84 1.49 36
16 11/05/2014 09:58:54 -73.21,-156.61 91.16 11/05/2014 09:58:20 -73.20,-156.53 91.17 2.81 34
17 11/05/2014 10:49:34 73.21, 10.72 88.85 11/05/2014 10:49:06 73.23, 10.73 88.88 2.37 28
18 11/05/2014 11:40:16 -73.20, 178.02 91.15 11/05/2014 11:39:50 -73.22, 178.07 91.13 2.51 26
19 11/05/2014 12:30:56 73.19, -14.65 88.86 11/05/2014 12:30:35 73.19, -14.57 88.86 2.71 21
20 11/05/2014 13:21:37 -73.23, 152.76 91.09 11/05/2014 13:21:20 -73.23, 152.67 91.10 3.17 17
21 11/05/2014 14:12:18 73.18, -40.02 88.87 11/05/2014 14:12:05 73.21, -39.97 88.90 3.29 13
22 11/05/2014 15:02:59 -73.22, 127.39 91.08 11/05/2014 15:02:49 -73.19, 127.37 91.11 3.20 10
23 11/05/2014 15:53:39 73.22, -65.28 88.93 11/05/2014 15:53:35 73.22, -65.38 88.93 3.05 4
24 11/05/2014 16:44:21 -73.21, 102.02 91.08 11/05/2014 16:44:19 -73.21, 101.97 91.08 1.77 2
25 11/05/2014 17:35:01 73.20, -90.65 88.94 11/05/2014 17:35:04 73.18, -90.67 88.92 2.30 3




NCC Satellite Simultaneous Nadir Overpasses (SNOs) Prediction Service
